| time (UTC) | temp F | wind direction | speed MPH | gust MPH | rain 1hr in | rain 24hr in | rain mn in | humidity % | barometer mb |
| 20260901231105 | 74 | 350 | 0.0 | 1.0 | 0.00 | 0.03 | 0.03 | 50 | 1010.7 |
| 20260901230104 | 76 | 282 | 0.0 | 1.0 | 0.00 | 0.03 | 0.03 | 47 | 1010.7 |
| 20260901225104 | 76 | 287 | 0.0 | 0.0 | 0.00 | 0.03 | 0.03 | 50 | 1010.6 |
| 20260901224042 | 77 | 334 | 0.0 | 1.0 | 0.00 | 0.03 | 0.03 | 48 | 1010.7 |
| 20260901223050 | 77 | 148 | 0.0 | 4.0 | 0.00 | 0.03 | 0.03 | 47 | 1010.9 |
| 20260901222032 | 78 | 204 | 0.0 | 1.0 | 0.00 | 0.03 | 0.03 | 50 | 1010.9 |
| 20260901221013 | 76 | 294 | 0.0 | 0.0 | 0.00 | 0.03 | 0.03 | 53 | 1011.2 |
| 20260901213819 | 74 | 146 | 0.0 | 3.0 | 0.00 | 0.12 | 0.03 | 55 | 1011.9 |
| 20260901212815 | 73 | 137 | 0.0 | 5.0 | 0.00 | 0.15 | 0.03 | 53 | 1012.1 |
| 20260901211817 | 73 | 123 | 1.0 | 5.0 | 0.00 | 0.15 | 0.03 | 57 | 1012.2 |
| 20260901210804 | 74 | 15 | 0.0 | 0.0 | 0.00 | 0.17 | 0.03 | 55 | 1012.6 |
| 20260901205807 | 72 | 5 | 1.0 | 4.0 | 0.00 | 0.17 | 0.03 | 56 | 1013.0 |
| 20260901204814 | 71 | 342 | 1.0 | 5.0 | 0.00 | 0.17 | 0.03 | 60 | 1013.3 |
| 20260901203747 | 70 | 271 | 0.0 | 1.0 | 0.00 | 0.17 | 0.03 | 62 | 1013.5 |
| 20260901202744 | 69 | 166 | 0.0 | 0.0 | 0.00 | 0.17 | 0.03 | 63 | 1013.5 |
| 20260901200613 | 66 | 338 | 0.0 | 0.0 | 0.00 | 0.20 | 0.03 | 67 | 1013.9 |
| 20260901195541 | 65 | 11 | 0.0 | 0.0 | 0.00 | 0.20 | 0.03 | 72 | 1014.1 |
| 20260901194553 | 64 | 194 | 0.0 | 1.0 | 0.00 | 0.20 | 0.03 | 80 | 1014.2 |
| 20260901192435 | 61 | 148 | 0.0 | 0.0 | 0.00 | 0.20 | 0.03 | 84 | 1014.6 |
| 20260901191425 | 60 | 122 | 0.0 | 0.0 | 0.00 | 0.20 | 0.03 | 88 | 1014.9 |
| 20260901185257 | 59 | 172 | 2.0 | 9.0 | 0.05 | 0.20 | 0.03 | 86 | 1015.0 |
| 20260901184243 | 61 | 156 | 0.0 | 1.0 | 0.10 | 0.19 | 0.02 | 84 | 1015.0 |
| 20260901183216 | 62 | 153 | 0.0 | 9.0 | 0.00 | 0.17 | 0.00 | 80 | 1015.1 |
| 20260901181103 | 67 | 139 | 0.0 | 2.0 | 0.00 | 0.17 | 0.00 | 70 | 1014.8 |
| 20260901180120 | 67 | 338 | 0.0 | 0.0 | 0.00 | 0.17 | 0.00 | 68 | 1014.9 |
| 20260901175131 | 67 | 338 | 0.0 | 0.0 | 0.00 | 0.17 | 0.00 | 68 | 1014.8 |
| 20260901174144 | 66 | 125 | 0.0 | 2.0 | 0.00 | 0.17 | 0.00 | 68 | 1014.7 |
| 20260901173207 | 64 | 141 | 0.0 | 1.0 | 0.00 | 0.17 | 0.00 | 76 | 1014.9 |
| 20260901172224 | 64 | 11 | 0.0 | 0.0 | 0.00 | 0.17 | 0.00 | 78 | 1015.0 |
| 20260901171152 | 64 | 336 | 1.0 | 6.0 | 0.00 | 0.17 | 0.00 | 75 | 1015.0 |
| 20260901170119 | 64 | 348 | 0.0 | 4.0 | 0.00 | 0.17 | 0.00 | 77 | 1015.1 |
| 20260901165110 | 64 | 13 | 0.0 | 4.0 | 0.00 | 0.17 | 0.00 | 74 | 1015.0 |
| 20260901164122 | 64 | 350 | 0.0 | 3.0 | 0.00 | 0.17 | 0.00 | 76 | 1015.0 |
| 20260901163140 | 63 | 250 | 0.0 | 0.0 | 0.00 | 0.17 | 0.00 | 77 | 1015.1 |
| 20260901161041 | 61 | 238 | 0.0 | 0.0 | 0.00 | 0.17 | 0.00 | 81 | 1015.4 |
| 20260901160028 | 61 | 9 | 0.0 | 0.0 | 0.00 | 0.17 | 0.00 | 80 | 1015.4 |
| 20260901155030 | 60 | 276 | 0.0 | 0.0 | 0.00 | 0.17 | 0.00 | 84 | 1015.5 |
| 20260901154002 | 59 | 238 | 0.0 | 1.0 | 0.00 | 0.17 | 0.00 | 86 | 1015.7 |
| 20260901151854 | 58 | 4 | 0.0 | 2.0 | 0.00 | 0.17 | 0.00 | 89 | 1015.8 |
| 20260901150858 | 57 | 253 | 0.0 | 0.0 | 0.00 | 0.17 | 0.00 | 91 | 1015.9 |
| 20260901145852 | 56 | 194 | 0.0 | 0.0 | 0.00 | 0.17 | 0.00 | 93 | 1015.9 |
| 20260901144850 | 56 | 251 | 0.0 | 0.0 | 0.00 | 0.17 | 0.00 | 94 | 1015.9 |
| 20260901143852 | 55 | 12 | 0.0 | 0.0 | 0.00 | 0.17 | 0.00 | 96 | 1015.9 |
| 20260901142850 | 55 | 321 | 0.0 | 0.0 | 0.00 | 0.17 | 0.00 | 96 | 1016.0 |
| 20260901141910 | 55 | 129 | 0.0 | 0.0 | 0.00 | 0.17 | 0.00 | 97 | 1016.1 |
| 20260901140912 | 54 | 129 | 0.0 | 0.0 | 0.00 | 0.17 | 0.00 | 97 | 1016.1 |
| 20260901134842 | 54 | 128 | 0.0 | 0.0 | 0.00 | 0.17 | 0.00 | 97 | 1016.1 |
| 20260901133817 | 54 | 128 | 0.0 | 0.0 | 0.00 | 0.17 | 0.00 | 98 | 1016.2 |
| 20260901132813 | 54 | 129 | 0.0 | 0.0 | 0.00 | 0.17 | 0.00 | 97 | 1016.3 |
| 20260901131821 | 53 | 128 | 0.0 | 0.0 | 0.00 | 0.17 | 0.00 | 97 | 1016.1 |
| 20260901130801 | 53 | 129 | 0.0 | 0.0 | 0.00 | 0.17 | 0.00 | 97 | 1016.1 |
| 20260901125807 | 53 | 148 | 0.0 | 0.0 | 0.00 | 0.17 | 0.00 | 97 | 1015.9 |
| 20260901124812 | 53 | 151 | 0.0 | 1.0 | 0.00 | 0.17 | 0.00 | 97 | 1015.8 |
| 20260901123746 | 53 | 117 | 0.0 | 1.0 | 0.00 | 0.17 | 0.00 | 97 | 1015.8 |
| 20260901122732 | 53 | 243 | 0.0 | 0.0 | 0.00 | 0.17 | 0.00 | 97 | 1015.7 |
| 20260901121745 | 53 | 243 | 0.0 | 0.0 | 0.00 | 0.17 | 0.00 | 97 | 1015.7 |
| 20260901120711 | 53 | 187 | 0.0 | 1.0 | 0.00 | 0.17 | 0.00 | 97 | 1015.5 |
| 20260901112352 | 53 | 148 | 0.0 | 0.0 | 0.00 | 0.17 | 0.00 | 97 | 1015.1 |
| 20260901111336 | 53 | 148 | 0.0 | 0.0 | 0.00 | 0.17 | 0.00 | 97 | 1015.0 |
| 20260901110332 | 52 | 148 | 0.0 | 0.0 | 0.00 | 0.17 | 0.00 | 97 | 1015.0 |
| 20260901105354 | 52 | 148 | 0.0 | 0.0 | 0.00 | 0.17 | 0.00 | 97 | 1015.0 |
| 20260901104415 | 52 | 148 | 0.0 | 0.0 | 0.00 | 0.17 | 0.00 | 97 | 1014.9 |
| 20260901103416 | 52 | 148 | 0.0 | 0.0 | 0.00 | 0.17 | 0.00 | 97 | 1015.1 |
| 20260901102352 | 52 | 148 | 0.0 | 0.0 | 0.00 | 0.17 | 0.00 | 97 | 1014.9 |
| 20260901101354 | 52 | 148 | 0.0 | 0.0 | 0.00 | 0.17 | 0.00 | 97 | 1014.9 |
| 20260901100417 | 52 | 148 | 0.0 | 0.0 | 0.00 | 0.17 | 0.00 | 97 | 1014.8 |
| 20260901095353 | 52 | 148 | 0.0 | 0.0 | 0.00 | 0.17 | 0.00 | 97 | 1014.7 |
| 20260901093250 | 53 | 148 | 0.0 | 0.0 | 0.00 | 0.17 | 0.00 | 97 | 1014.7 |
| 20260901092225 | 53 | 148 | 0.0 | 0.0 | 0.00 | 0.17 | 0.00 | 97 | 1014.6 |
| 20260901091207 | 54 | 148 | 0.0 | 0.0 | 0.00 | 0.17 | 0.00 | 97 | 1014.5 |
| 20260901090345 | 54 | 148 | 0.0 | 0.0 | 0.00 | 0.16 | 0.00 | 97 | 1014.7 |
| 20260901085353 | 54 | 148 | 0.0 | 0.0 | 0.00 | 0.16 | 0.00 | 97 | 1014.6 |
| 20260901084320 | 54 | 148 | 0.0 | 0.0 | 0.00 | 0.16 | 0.00 | 97 | 1014.6 |
| 20260901082127 | 55 | 148 | 0.0 | 0.0 | 0.00 | 0.16 | 0.00 | 96 | 1015.0 |
| 20260901075937 | 55 | 148 | 0.0 | 0.0 | 0.00 | 0.16 | 0.00 | 97 | 1015.2 |
| 20260901074959 | 55 | 153 | 0.0 | 1.0 | 0.00 | 0.16 | 0.00 | 97 | 1015.3 |
| 20260901074017 | 55 | 325 | 0.0 | 0.0 | 0.00 | 0.16 | 0.00 | 97 | 1015.3 |
| 20260901072945 | 55 | 325 | 0.0 | 0.0 | 0.00 | 0.16 | 0.00 | 97 | 1015.2 |
| 20260901071955 | 55 | 325 | 0.0 | 0.0 | 0.00 | 0.16 | 0.00 | 97 | 1015.5 |
| 20260901070938 | 55 | 325 | 0.0 | 0.0 | 0.00 | 0.16 | 0.00 | 96 | 1015.5 |
| 20260901065913 | 55 | 325 | 0.0 | 0.0 | 0.00 | 0.16 | 0.00 | 96 | 1015.5 |
| 20260901064917 | 55 | 325 | 0.0 | 0.0 | 0.00 | 0.16 | 0.00 | 96 | 1015.4 |
| 20260901063927 | 55 | 107 | 0.0 | 0.0 | 0.00 | 0.16 | 0.00 | 96 | 1015.5 |
| 20260901062923 | 56 | 107 | 0.0 | 0.0 | 0.00 | 0.16 | 0.00 | 96 | 1015.4 |
| 20260901061901 | 56 | 108 | 0.0 | 0.0 | 0.00 | 0.16 | 0.00 | 96 | 1015.4 |
| 20260901060923 | 55 | 354 | 0.0 | 0.0 | 0.00 | 0.16 | 0.00 | 96 | 1015.6 |
| 20260901055901 | 56 | 354 | 0.0 | 0.0 | 0.00 | 0.16 | 0.17 | 96 | 1015.5 |
| 20260901054843 | 56 | 354 | 0.0 | 0.0 | 0.00 | 0.16 | 0.17 | 96 | 1015.5 |
| 20260901053856 | 56 | 354 | 0.0 | 0.0 | 0.00 | 0.16 | 0.17 | 96 | 1015.4 |
| 20260901052843 | 56 | 354 | 0.0 | 0.0 | 0.00 | 0.16 | 0.17 | 96 | 1015.3 |
| 20260901051813 | 56 | 354 | 0.0 | 0.0 | 0.00 | 0.16 | 0.17 | 95 | 1015.1 |
| 20260901044506 | 57 | 354 | 0.0 | 0.0 | 0.00 | 0.16 | 0.17 | 95 | 1015.1 |
| 20260901043441 | 57 | 354 | 0.0 | 0.0 | 0.00 | 0.16 | 0.17 | 95 | 1015.4 |
| 20260901042505 | 57 | 354 | 0.0 | 0.0 | 0.00 | 0.16 | 0.17 | 95 | 1015.3 |
| 20260901040317 | 58 | 354 | 0.0 | 0.0 | 0.00 | 0.16 | 0.17 | 95 | 1015.8 |
| 20260901035243 | 58 | 354 | 0.0 | 0.0 | 0.00 | 0.16 | 0.17 | 95 | 1015.7 |
| 20260901034222 | 58 | 354 | 0.0 | 0.0 | 0.00 | 0.16 | 0.17 | 95 | 1015.6 |
| 20260901033217 | 58 | 354 | 0.0 | 0.0 | 0.00 | 0.16 | 0.17 | 94 | 1015.7 |
| 20260901031117 | 58 | 354 | 0.0 | 0.0 | 0.00 | 0.16 | 0.17 | 94 | 1015.4 |
| 20260901030121 | 58 | 354 | 0.0 | 0.0 | 0.00 | 0.16 | 0.17 | 94 | 1015.2 |
| 20260901025116 | 58 | 354 | 0.0 | 0.0 | 0.00 | 0.16 | 0.17 | 93 | 1015.0 |
| 20260901024106 | 58 | 354 | 0.0 | 0.0 | 0.00 | 0.19 | 0.17 | 93 | 1014.9 |
| 20260901023051 | 58 | 354 | 0.0 | 0.0 | 0.00 | 0.24 | 0.17 | 93 | 1014.7 |
| 20260901022028 | 58 | 354 | 0.0 | 0.0 | 0.00 | 0.29 | 0.17 | 92 | 1014.6 |
| 20260901021008 | 58 | 354 | 0.0 | 0.0 | 0.00 | 0.32 | 0.17 | 92 | 1014.3 |
| 20260901020020 | 59 | 354 | 0.0 | 0.0 | 0.00 | 0.37 | 0.17 | 91 | 1014.3 |
| 20260901013846 | 59 | 359 | 0.0 | 0.0 | 0.00 | 0.41 | 0.17 | 92 | 1014.5 |
| 20260901012813 | 59 | 0 | 0.0 | 0.0 | 0.00 | 0.42 | 0.17 | 92 | 1014.5 |
| 20260901011810 | 59 | 281 | 0.0 | 0.0 | 0.00 | 0.42 | 0.17 | 90 | 1014.6 |
| 20260901005644 | 60 | 263 | 0.0 | 0.0 | 0.00 | 0.42 | 0.17 | 88 | 1014.6 |
| 20260901004617 | 60 | 234 | 0.0 | 1.0 | 0.00 | 0.42 | 0.17 | 89 | 1014.7 |
| 20260901003641 | 60 | 321 | 0.0 | 0.0 | 0.00 | 0.42 | 0.17 | 90 | 1014.7 |
| 20260901002702 | 60 | 321 | 0.0 | 0.0 | 0.00 | 0.42 | 0.17 | 89 | 1014.8 |
| 20260901001635 | 60 | 321 | 0.0 | 0.0 | 0.00 | 0.42 | 0.17 | 87 | 1015.0 |
| 20260901000637 | 61 | 322 | 0.0 | 0.0 | 0.00 | 0.42 | 0.17 | 85 | 1015.0 |
| 20260831235627 | 61 | 321 | 0.0 | 0.0 | 0.00 | 0.42 | 0.17 | 88 | 1015.1 |
| 20260831232443 | 60 | 321 | 0.0 | 0.0 | 0.00 | 0.42 | 0.17 | 89 | 1015.2 |